Content
SEND FEEDBACK

Daily
Averages
Monthly
Summary
French Polynesia

PAPEETE, FRENCH POLYNESIA


Home > Oceania > French Polynesia
Elevation: 2 meters     Latitude: 17 33S     Longitude: 149 36W

WEATHER
 
SELECT A DAY
Number of Records: 214,224;   Date Range: 6/30/96 - 10/21/14
 
SHARE

PRINT THIS DATA

[ ← Previous Day ]
WEATHER ALMANAC - 7 DECEMBER, 2013
[ Next Day → ]
[ °F ]   °C
Weather ElementAverageHighLow
Temperature26.6 °C29 °C (10:00 am)24 °C (3:00 am)
Dewpoint22.3 °C24 °C (12:00 pm)21 °C (12:30 am)
Humidity76.6 %89 % (3:00 am)63 % (11:00 am)
Barometer1011.2 hPa1013.2 hPa (9:30 pm)1009.1 hPa (3:30 pm)
Wind Speed10.1 km/h25.9 km/h (12:30 pm)
Weather ElementAverage
Visibility11.9 km
Wind DirectionENE (79.8 °)

Weather ElementTotal
Precipitation---
Cooling Degree Days8.2 (Base 18.3)
Growing Degree Days16.5 (Base 10)
Averaged from 55 records on 7 December, 2013
WEATHER CONDITIONS BREAKOUT
WIND DIRECTION BREAKOUT
WEATHER BY HOUR - 7 DECEMBER, 2013
[ °F ]   °C
Local TimeTemperatureDewpointHumidityBarometerVisibilityWind DirectionWind SpeedGust SpeedPrecipitationEventsConditions
12:30 AM26 °C21 °C74 %1010.2 hPa10 kmENE (70°)9.3 km/hMostly Cloudy
1:00 AM26 °C21 °C74 %1010.2 hPa10 kmEast (80°)5.6 km/hMostly Cloudy
1:30 AM27 °C21 °C70 %1010.2 hPa10 kmVariable3.7 km/hMostly Cloudy
2:00 AM25.6 °C22.2 °C76 %1010.8 hPa14.5 kmNW (310°)11.1 km/hScattered Clouds
2:00 AM26 °C22 °C78 %1010.2 hPa10 kmNW (310°)11.1 km/hMostly Cloudy
2:30 AM25 °C22 °C83 %1010.2 hPa10 kmSE (130°)5.6 km/hMostly Cloudy
3:00 AM24 °C22 °C89 %1011.2 hPa5 kmNNE (30°)14.8 km/hRainRain
3:30 AM24 °C22 °C89 %1010.2 hPa10 kmESE (110°)11.1 km/hRainLight Rain
4:00 AM24 °C22 °C89 %1010.2 hPa8 kmEast (90°)11.1 km/hRainLight Rain
4:30 AM24 °C21 °C83 %1010.2 hPa10 kmVariable5.6 km/h
5:00 AM24.4 °C21.7 °C79 %1011.2 hPa59.5 kmSSW (200°)3.7 km/hClear
5:00 AM24 °C22 °C89 %1011.2 hPa10 kmSSW (200°)3.7 km/h
5:30 AM24 °C22 °C89 %1011.2 hPa10 kmVariable3.7 km/hOvercast
6:00 AM24 °C22 °C89 %1011.2 hPa10 kmVariable5.6 km/hOvercast
6:30 AM25 °C22 °C83 %1012.2 hPa10 kmVariable5.6 km/hOvercast
7:00 AM25 °C23 °C89 %1012.2 hPa10 kmNorth (10°)3.7 km/hOvercast
7:30 AM26 °C23 °C83 %1012.2 hPa10 kmNNW (340°)5.6 km/hOvercast
8:00 AM26.7 °C22.8 °C73 %1012.2 hPa19.3 kmCalmPartly Cloudy
8:00 AM27 °C23 °C79 %1012.2 hPa10 kmCalmOvercast
8:30 AM27 °C23 °C79 %1012.2 hPa10 kmNorth (350°)5.6 km/hOvercast
9:00 AM28 °C22 °C70 %1012.2 hPa10 kmNorth (10°)7.4 km/hMostly Cloudy
9:30 AM28 °C22 °C70 %1012.2 hPa10 kmENE (60°)18.5 km/hOvercast
10:00 AM29 °C22 °C66 %1012.2 hPa10 kmNE (50°)20.4 km/hMostly Cloudy
10:30 AM29 °C22 °C66 %1012.2 hPa10 kmNE (40°)24.1 km/hMostly Cloudy
11:00 AM28.9 °C22.8 °C63 %1012.2 hPa19.3 kmNE (50°)20.4 km/hPartly Cloudy
11:00 AM29 °C23 °C70 %1012.2 hPa10 kmNE (50°)20.4 km/hMostly Cloudy
11:30 AM28 °C23 °C74 %1012.2 hPa10 kmNE (50°)20.4 km/hRainLight Rain
12:00 PM29 °C24 °C74 %1012.2 hPa10 kmNE (50°)20.4 km/hMostly Cloudy
12:30 PM29 °C23 °C70 %1012.2 hPa10 kmNE (50°)25.9 km/hMostly Cloudy
1:00 PM28 °C23 °C74 %1011.2 hPa10 kmNE (50°)22.2 km/hMostly Cloudy
1:30 PM28 °C23 °C74 %1011.2 hPa10 kmNE (50°)18.5 km/hMostly Cloudy
2:00 PM27.8 °C22.2 °C66 %1011.2 hPa19.3 kmENE (60°)20.4 km/hPartly Cloudy
2:00 PM28 °C23 °C74 %1010.2 hPa10 kmENE (60°)20.4 km/hMostly Cloudy
2:37 PM28 °C23 °C74 %1010.2 hPa10 kmNE (50°)18.5 km/hMostly Cloudy
3:00 PM28 °C23 °C74 %1010.2 hPa10 kmNE (40°)22.2 km/hMostly Cloudy
3:30 PM28 °C23 °C74 %1009.1 hPa10 kmVariable13 km/hMostly Cloudy
4:00 PM28 °C23 °C74 %1009.1 hPa10 kmVariable7.4 km/hMostly Cloudy
4:30 PM28 °C23 °C74 %1009.1 hPa10 kmNW (320°)7.4 km/hMostly Cloudy
5:00 PM27.8 °C22.8 °C67 %1010.2 hPa19.3 kmNE (40°)18 km/hScattered Clouds
5:00 PM28 °C23 °C74 %1010.2 hPa10 kmNE (40°)9.3 km/hMostly Cloudy
5:30 PM28 °C23 °C74 %1010.2 hPa10 kmNE (40°)11.1 km/hMostly Cloudy
6:00 PM27 °C22 °C74 %1010.2 hPa10 kmENE (60°)9.3 km/hMostly Cloudy
6:30 PM27 °C22 °C74 %1010.2 hPa10 kmSouth (170°)9.3 km/hMostly Cloudy
7:00 PM27 °C22 °C74 %1011.2 hPa10 kmVariable3.7 km/hScattered Clouds
7:30 PM27 °C22 °C74 %1011.2 hPa10 kmEast (100°)7.4 km/hScattered Clouds
8:00 PM26.7 °C22.2 °C71 %1012.2 hPa19.3 kmESE (110°)3.7 km/hPartly Cloudy
8:00 PM26 °C22 °C78 %1012.2 hPa10 kmESE (110°)3.7 km/hScattered Clouds
8:30 PM26 °C22 °C78 %1012.2 hPa10 kmVariable3.7 km/hScattered Clouds
9:00 PM26 °C23 °C83 %1012.2 hPa10 kmVariable3.7 km/hScattered Clouds
9:30 PM26 °C22 °C78 %1013.2 hPa10 kmEast (100°)5.6 km/hScattered Clouds
10:00 PM26 °C22 °C78 %1013.2 hPa10 kmENE (70°)5.6 km/hScattered Clouds
10:30 PM25 °C22 °C83 %1013.2 hPa10 kmVariable3.7 km/hScattered Clouds
11:00 PM25.6 °C21.7 °C73 %1013.2 hPa19.3 kmSSW (200°)3.5 km/hScattered Clouds
11:00 PM25 °C22 °C83 %1013.2 hPa10 kmCalmScattered Clouds
11:30 PM25 °C21 °C78 %1013.2 hPa10 kmCalmScattered Clouds
Hourly data recorded from NTAA, located 0 kilometers away from Papeete, French Polynesia







STORIES FROM OUR PARTNERS